COSMOS 894 DEB, 45506

Orbit data source: Space-Track

COSMOS 894 DEB, 45506 is space debris in LEO originally from a launch on Mon, 21 Feb 1977 UTC launched from the Plesetsk Missile And Space Complex (PKMTR). Debris objects in space refer to the collection of defunct objects orbiting the Earth. Examples of debris include non-operational satellites, rocket bodies, and fragments generated from explosions, collisions, or faulty payload assembly.

Loading next visibility...
Identifier
45506, 1977-013C
Orbit
LEO
Country
Flag of CISCIS
Related business
Manufacturer
Unknown
Mission
Spacecraft
Bus & Motor
Unknown
Mass
Unknown
Launch date (UTC)
1977-02-21 (49 years ago)
Launch vehicle
Unknown
Launch site
Plesetsk Missile And Space Complex (PKMTR)
Object type
Payload
Rocket body
Debris
Shape & HBR
Unknown shape, 0.1 m
Radar Cross Section
Small (<0.1 m²)

Expand to show TLE details & history
Last TLE update: 17 hours ago

TLE from 17 hours ago
0 COSMOS 894 DEB
1 45506U 77013C   25352.62761142  .00000692  00000-0  65862-3 0  9991
2 45506  82.9419 219.0056 0029038 313.3206  46.5532 13.79253823588119
Epoch: 2025-12-18T15:03Z
TLE epoch observation values (Epoch: 2025-12-18T15:03:45.626Z)
Latitude
Longitude
-94.41491°
Altitude
954.803 km
Speed
7.382 km/s
True Right ascension
14h 36m 01s
True Declination
0° 00' 00"
Sunlit
Object was in daylight at epoch
Visualization orbit readout
Latitude
Unknown
Longitude
Unknown
Altitude
Unknown
Speed
Unknown
Apparent Right ascension
Unknown
Apparent Declination
Unknown
Sunlit
N/A
Visualization observer readout
Local Sidereal Time
06:33:33
Azimuth
Unknown
Elevation
Unknown
Doppler factor
Unknown
Orbital elements
Apogee altitude
984.997 km
Perigee altitude
942.358 km
Semi-major axis
7,341.814 km
Eccentricity
0.0029
Inclination
82.9419°
RAAN
219.0056°
Arg. of periapsis
313.3206°
True anomaly
46.79539°
Mean anomaly
46.5532°
Eccentric anomaly
46.67423°
Mean motion
3.45015 °/min
Orbital period
104.34 mins
BSTAR
0.00065862
Loading maneuver chart data...
Computing Atmospheric mass density...
Loading historical data...
Loading historical data...
Loading historical data...
Loading historical data...
Loading historical data...
Loading historical data...
Loading historical data...
Other satellites on launch #13 in the year 1977 (1977-02-21 UTC)

Documentation

Showing up to 5 results
|